• In Hungary
  • List of Countries
  • For 7 days
  • Water Temperature
  • Satellite Maps
  • Weather Map
  • News
  • Weather Widgets
  • user-avatar
    Login

    Hourly Weather Sergeevka

    Today, 19 June, Tuesday

    Time Temperature Precipitation Wind Pressure Humidity
    00:00 +18°C° 0 mm 1 mps 745 mmHg 65%
    01:00 +18°C° 0 mm 1 mps 745 mmHg 67%
    02:00 +18°C° 0 mm 1 mps 745 mmHg 69%
    03:00 +16°C° 0 mm 1 mps 745 mmHg 68%
    04:00 +18°C° 0 mm 1 mps 745 mmHg 70%
    05:00 +18°C° 0 mm 1 mps 745 mmHg 73%
    06:00 +19°C° 0 mm 1 mps 745 mmHg 75%
    07:00 +21°C° 0 mm 1 mps 745 mmHg 72%
    08:00 +21°C° 0 mm 2 mps 745 mmHg 69%
    09:00 +24°C° 0 mm 2 mps 745 mmHg 65%
    10:00 +25°C° 0.2 mm 2 mps 745 mmHg 64%
    11:00 +25°C° 0.2 mm 3 mps 745 mmHg 63%
    12:00 +26°C° 0.2 mm 3 mps 745 mmHg 62%
    13:00 +26°C° 0.3 mm 4 mps 744 mmHg 63%
    14:00 +26°C° 0.3 mm 4 mps 744 mmHg 63%
    15:00 +26°C° 0.3 mm 4 mps 744 mmHg 64%
    16:00 +26°C° 0.3 mm 4 mps 744 mmHg 67%
    17:00 +26°C° 0.3 mm 4 mps 744 mmHg 71%
    18:00 +25°C° 0.3 mm 3 mps 743 mmHg 75%
    19:00 +24°C° 0.1 mm 3 mps 743 mmHg 80%
    20:00 +21°C° 0.1 mm 3 mps 743 mmHg 85%
    21:00 +20°C° 0.1 mm 3 mps 743 mmHg 89%
    22:00 +19°C° 0 mm 3 mps 743 mmHg 91%
    23:00 +19°C° 0 mm 3 mps 743 mmHg 92%

    Tomorrow, 20 June, Wednesday

    Time Temperature Precipitation Wind Pressure Humidity
    00:00 +18°C° 0 mm 3 mps 743 mmHg 93%
    01:00 +18°C° 0 mm 3 mps 743 mmHg 93%
    02:00 +18°C° 0 mm 4 mps 742 mmHg 94%
    03:00 +18°C° 0 mm 4 mps 742 mmHg 94%
    04:00 +18°C° 0 mm 4 mps 742 mmHg 93%
    05:00 +18°C° 0 mm 4 mps 742 mmHg 93%
    06:00 +18°C° 0 mm 4 mps 742 mmHg 92%
    07:00 +19°C° 0 mm 5 mps 743 mmHg 86%
    08:00 +20°C° 0 mm 5 mps 743 mmHg 81%
    09:00 +21°C° 0 mm 5 mps 743 mmHg 75%
    10:00 +22°C° 0 mm 6 mps 743 mmHg 72%
    11:00 +22°C° 0 mm 6 mps 743 mmHg 69%
    12:00 +23°C° 0 mm 6 mps 743 mmHg 65%
    13:00 +23°C° 0 mm 6 mps 743 mmHg 63%
    14:00 +23°C° 0 mm 6 mps 743 mmHg 61%
    15:00 +23°C° 0 mm 6 mps 743 mmHg 59%
    16:00 +23°C° 0 mm 5 mps 743 mmHg 62%
    17:00 +23°C° 0 mm 4 mps 743 mmHg 65%
    18:00 +22°C° 0 mm 4 mps 744 mmHg 67%
    19:00 +21°C° 0 mm 4 mps 744 mmHg 71%
    20:00 +19°C° 0 mm 3 mps 744 mmHg 75%
    21:00 +18°C° 0 mm 3 mps 744 mmHg 79%
    22:00 +17°C° 0 mm 3 mps 744 mmHg 81%
    23:00 +16°C° 0 mm 3 mps 744 mmHg 83%

    Day after tomorrow, 21 June, Thursday

    Time Temperature Precipitation Wind Pressure Humidity
    00:00 +14°C° 0 mm 3 mps 745 mmHg 85%
    01:00 +14°C° 0 mm 3 mps 745 mmHg 87%
    02:00 +13°C° 0 mm 3 mps 745 mmHg 90%
    03:00 +13°C° 0 mm 3 mps 745 mmHg 92%
    04:00 +13°C° 0 mm 3 mps 745 mmHg 90%
    05:00 +14°C° 0 mm 3 mps 745 mmHg 89%
    06:00 +14°C° 0 mm 3 mps 745 mmHg 87%
    07:00 +17°C° 0 mm 3 mps 745 mmHg 81%
    08:00 +18°C° 0 mm 3 mps 745 mmHg 75%
    09:00 +20°C° 0 mm 3 mps 745 mmHg 69%
    10:00 +21°C° 0 mm 3 mps 745 mmHg 65%
    11:00 +22°C° 0 mm 4 mps 745 mmHg 61%
    12:00 +23°C° 0 mm 4 mps 745 mmHg 57%
    13:00 +23°C° 0 mm 4 mps 745 mmHg 58%
    14:00 +25°C° 0 mm 4 mps 745 mmHg 58%
    15:00 +25°C° 0 mm 4 mps 745 mmHg 59%
    16:00 +25°C° 0 mm 3 mps 744 mmHg 61%
    17:00 +25°C° 0 mm 3 mps 744 mmHg 64%
    18:00 +25°C° 0 mm 3 mps 744 mmHg 66%
    19:00 +23°C° 0 mm 2 mps 744 mmHg 72%
    20:00 +20°C° 0 mm 2 mps 744 mmHg 77%
    21:00 +19°C° 0 mm 2 mps 744 mmHg 82%
    22:00 +18°C° 0 mm 2 mps 744 mmHg 84%
    23:00 +18°C° 0 mm 2 mps 744 mmHg 85%

    22 June, Friday

    Time Temperature Precipitation Wind Pressure Humidity
    00:00 +17°C° 0 mm 2 mps 744 mmHg 87%
    01:00 +17°C° 0 mm 2 mps 744 mmHg 89%
    02:00 +16°C° 0 mm 2 mps 744 mmHg 90%
    03:00 +16°C° 0 mm 2 mps 744 mmHg 91%
    04:00 +16°C° 0 mm 2 mps 744 mmHg 90%
    05:00 +17°C° 0 mm 3 mps 743 mmHg 89%
    06:00 +17°C° 0 mm 3 mps 743 mmHg 87%
    07:00 +19°C° 0 mm 4 mps 743 mmHg 82%
    08:00 +21°C° 0 mm 4 mps 743 mmHg 77%
    09:00 +23°C° 0 mm 5 mps 743 mmHg 72%
    10:00 +25°C° 0 mm 5 mps 743 mmHg 69%
    11:00 +26°C° 0 mm 5 mps 742 mmHg 67%
    12:00 +27°C° 0 mm 6 mps 742 mmHg 64%
    13:00 +27°C° 0 mm 6 mps 742 mmHg 63%
    14:00 +27°C° 0 mm 6 mps 741 mmHg 63%
    15:00 +28°C° 0 mm 6 mps 741 mmHg 62%
    16:00 +27°C° 0 mm 5 mps 741 mmHg 65%
    17:00 +27°C° 0 mm 5 mps 740 mmHg 68%
    18:00 +27°C° 0 mm 4 mps 740 mmHg 72%
    19:00 +25°C° 0.1 mm 4 mps 740 mmHg 76%
    20:00 +23°C° 0.1 mm 4 mps 740 mmHg 81%
    21:00 +21°C° 0.1 mm 4 mps 740 mmHg 86%
    22:00 +21°C° 0.2 mm 4 mps 740 mmHg 88%
    23:00 +20°C° 0.2 mm 3 mps 740 mmHg 89%

    23 June, Saturday

    Time Temperature Precipitation Wind Pressure Humidity
    00:00 +20°C° 0.2 mm 3 mps 740 mmHg 91%
    01:00 +19°C° 0.1 mm 3 mps 739 mmHg 92%
    02:00 +19°C° 0.1 mm 3 mps 739 mmHg 92%
    03:00 +18°C° 0.1 mm 3 mps 739 mmHg 93%
    04:00 +19°C° 0.2 mm 3 mps 739 mmHg 92%
    05:00 +19°C° 0.2 mm 3 mps 739 mmHg 91%
    06:00 +19°C° 0.2 mm 3 mps 739 mmHg 90%
    07:00 +20°C° 0.4 mm 3 mps 739 mmHg 88%
    08:00 +20°C° 0.4 mm 3 mps 739 mmHg 86%
    09:00 +20°C° 0.4 mm 3 mps 739 mmHg 85%
    10:00 +21°C° 0.3 mm 3 mps 739 mmHg 83%
    11:00 +21°C° 0.3 mm 3 mps 739 mmHg 81%
    12:00 +22°C° 0.3 mm 3 mps 739 mmHg 79%
    13:00 +20°C° 0.5 mm 4 mps 739 mmHg 82%
    14:00 +19°C° 0.5 mm 4 mps 739 mmHg 85%
    15:00 +17°C° 0.5 mm 5 mps 739 mmHg 87%
    16:00 +16°C° 1.3 mm 6 mps 739 mmHg 89%
    17:00 +14°C° 1.3 mm 6 mps 739 mmHg 91%
    18:00 +13°C° 1.3 mm 6 mps 740 mmHg 93%
    19:00 +13°C° 2.8 mm 6 mps 740 mmHg 94%
    20:00 +11°C° 2.8 mm 6 mps 740 mmHg 94%
    21:00 +10°C° 2.8 mm 6 mps 740 mmHg 94%
    22:00 +10°C° 2.3 mm 6 mps 740 mmHg 94%
    23:00 +10°C° 2.3 mm 6 mps 740 mmHg 94%

    24 June, Sunday

    Time Temperature Precipitation Wind Pressure Humidity
    00:00 +10°C° 2.3 mm 5 mps 741 mmHg 94%
    01:00 +9°C° 0.4 mm 5 mps 741 mmHg 94%
    02:00 +10°C° 0.4 mm 4 mps 741 mmHg 94%
    03:00 +9°C° 0.4 mm 3 mps 741 mmHg 95%
    04:00 +9°C° 0 mm 3 mps 742 mmHg 94%
    05:00 +9°C° 0 mm 3 mps 742 mmHg 94%
    06:00 +10°C° 0 mm 3 mps 742 mmHg 93%
    07:00 +11°C° 0 mm 4 mps 743 mmHg 90%
    08:00 +13°C° 0 mm 4 mps 743 mmHg 86%
    09:00 +15°C° 0 mm 4 mps 743 mmHg 82%
    10:00 +17°C° 0 mm 4 mps 744 mmHg 76%
    11:00 +19°C° 0 mm 4 mps 744 mmHg 71%
    12:00 +20°C° 0 mm 5 mps 744 mmHg 66%
    13:00 +20°C° 0 mm 5 mps 744 mmHg 65%
    14:00 +21°C° 0 mm 5 mps 744 mmHg 64%
    15:00 +21°C° 0 mm 5 mps 744 mmHg 63%
    16:00 +21°C° 0 mm 4 mps 744 mmHg 65%
    17:00 +21°C° 0 mm 4 mps 745 mmHg 67%
    18:00 +21°C° 0 mm 4 mps 745 mmHg 69%
    19:00 +19°C° 0 mm 3 mps 745 mmHg 74%
    20:00 +17°C° 0 mm 3 mps 746 mmHg 78%
    21:00 +16°C° 0 mm 2 mps 746 mmHg 83%
    22:00 +15°C° 0 mm 2 mps 746 mmHg 84%
    23:00 +14°C° 0 mm 2 mps 747 mmHg 86%
    Show more